Location: Drocourt
(49.0571°N, 1.7669°E)
Time: 16:01:58
(UTC+00:00)

Transit 4A - All Passes

Search period start: 13 April 2024 00:00
Search period end: 23 April 2024 00:00
Orbit: 871 x 972 km, 66.8° (Epoch: 13 April)

Date Brightness Start Highest point End Pass type
(mag) Time Alt. Az. Time Alt. Az. Time Alt. Az.
13 Apr - 00:41:10 10° WNW 00:44:34 16° WSW 00:47:59 10° SW visible
13 Apr - 12:23:54 10° ESE 12:24:25 10° E 12:24:55 10° E daylight
13 Apr - 14:03:40 10° SSW 14:09:33 59° ESE 14:15:20 10° NE daylight
13 Apr - 15:50:45 10° WSW 15:56:12 35° NW 16:01:34 10° NNE daylight
13 Apr - 17:40:56 10° NW 17:44:21 15° NNW 17:47:44 10° NNE daylight
13 Apr - 19:29:56 10° NNW 19:33:15 15° NNE 19:36:33 10° NE visible
13 Apr - 21:16:09 10° NNW 21:21:26 34° NE 21:26:42 10° ESE visible
13 Apr - 23:02:23 10° NW 23:08:08 61° WSW 23:13:52 10° SSE visible
14 Apr - 00:52:27 10° W 00:53:15 10° W 00:54:04 10° WSW visible
14 Apr - 12:29:40 10° SE 12:33:06 16° ESE 12:36:30 10° ENE daylight
14 Apr - 14:12:32 10° SSW 14:18:34 81° ESE 14:24:28 10° NE daylight
14 Apr - 16:00:27 10° W 16:05:31 28° NW 16:10:33 10° NNE daylight
14 Apr - 17:50:53 10° NW 17:53:56 14° N 17:56:59 10° NNE daylight
14 Apr - 19:39:05 10° NNW 19:42:49 17° NNE 19:46:32 10° ENE visible
14 Apr - 21:25:09 10° NNW 21:30:43 44° NE 21:36:17 10° ESE visible
14 Apr - 23:11:36 10° NW 23:17:04 43° WSW 23:22:32 10° S visible
15 Apr - 12:37:17 10° SSE 12:41:51 23° ESE 12:46:22 10° ENE daylight
15 Apr - 14:21:38 10° SW 14:27:38 75° NW 14:33:32 10° NNE daylight
15 Apr - 16:10:18 10° W 16:14:57 23° NNW 16:19:33 10° NNE daylight
15 Apr - 18:00:42 10° NNW 18:03:34 14° N 18:06:24 10° NNE daylight
15 Apr - 19:48:09 10° NNW 19:52:20 20° NNE 19:56:30 10° ENE visible
15 Apr - 21:34:09 10° NNW 21:39:56 58° NE 21:45:41 10° SE visible
15 Apr - 23:20:57 10° NW 23:25:56 30° WSW 23:30:56 10° S visible
16 Apr - 12:45:25 10° S 12:50:41 33° ESE 12:55:52 10° NE daylight
16 Apr - 14:30:54 10° SW 14:36:47 56° NW 14:42:34 10° NNE daylight
16 Apr - 16:20:14 10° WNW 16:24:24 19° NNW 16:28:34 10° NNE daylight
16 Apr - 18:10:20 10° NNW 18:13:12 14° N 18:16:03 10° NNE daylight
16 Apr - 19:57:09 10° NNW 20:01:47 24° NNE 20:06:25 10° E visible
16 Apr - 21:43:12 10° NW 21:49:03 79° NE 21:54:55 10° SE visible
16 Apr - 23:30:31 10° WNW 23:34:44 21° WSW 23:38:58 10° SSW visible
17 Apr - 12:53:53 10° S 12:59:35 46° ESE 13:05:11 10° NE daylight
17 Apr - 14:40:21 10° WSW 14:46:00 42° NW 14:51:34 10° NNE daylight
17 Apr - 16:30:14 10° WNW 16:33:56 17° NNW 16:37:37 10° NNE daylight
17 Apr - 18:19:45 10° NNW 18:22:49 14° N 18:25:53 10° NE daylight
17 Apr - 20:06:09 10° NNW 20:11:12 29° NE 20:16:13 10° E visible
17 Apr - 21:52:16 10° NW 21:58:07 77° WSW 22:03:57 10° SSE visible
17 Apr - 23:40:32 10° WNW 23:43:28 14° WSW 23:46:24 10° SW visible
18 Apr - 11:21:19 10° ESE 11:23:18 12° E 11:25:17 10° E daylight
18 Apr - 13:02:36 10° SSW 13:08:32 65° ESE 13:14:22 10° NE daylight
18 Apr - 14:49:57 10° WSW 14:55:17 33° NW 15:00:33 10° NNE daylight
18 Apr - 16:40:14 10° NW 16:43:30 15° NNW 16:46:47 10° NNE daylight
18 Apr - 18:28:58 10° NNW 18:32:25 16° NNE 18:35:50 10° NE daylight
18 Apr - 20:15:08 10° NNW 20:20:31 36° NE 20:25:53 10° ESE visible
18 Apr - 22:01:25 10° NW 22:07:06 55° WSW 22:12:47 10° SSE visible
19 Apr - 11:28:11 10° SE 11:32:01 18° ESE 11:35:48 10° ENE daylight
19 Apr - 13:11:33 10° SSW 13:17:34 89° ESE 13:23:28 10° NE daylight
19 Apr - 14:59:42 10° W 15:04:38 26° NNW 15:09:32 10° NNE daylight
19 Apr - 16:50:09 10° NW 16:53:07 14° N 16:56:05 10° NNE daylight
19 Apr - 18:38:06 10° NNW 18:41:58 18° NNE 18:45:49 10° ENE daylight
19 Apr - 20:24:08 10° NNW 20:29:46 48° NE 20:35:24 10° ESE visible
19 Apr - 22:10:40 10° NW 22:16:01 38° WSW 22:21:23 10° S visible
20 Apr - 11:35:59 10° SSE 11:40:47 26° ESE 11:45:32 10° NE daylight
20 Apr - 13:20:42 10° SW 13:26:39 68° NW 13:32:32 10° NNE daylight
20 Apr - 15:09:34 10° WNW 15:14:03 22° NNW 15:18:31 10° NNE daylight
20 Apr - 16:59:55 10° NNW 17:02:45 13° N 17:05:34 10° NNE daylight
20 Apr - 18:47:08 10° NNW 18:51:28 21° NNE 18:55:47 10° ENE daylight
20 Apr - 20:33:09 10° NNW 20:38:57 64° NE 20:44:46 10° SE visible
20 Apr - 22:20:04 10° NW 22:24:51 27° WSW 22:29:41 10° SSW visible
21 Apr - 11:44:13 10° S 11:49:38 36° ESE 11:54:57 10° NE daylight
21 Apr - 13:30:01 10° WSW 13:35:49 51° NW 13:41:33 10° NNE daylight
21 Apr - 15:19:31 10° WNW 15:23:33 18° NNW 15:27:33 10° NNE daylight
21 Apr - 17:09:28 10° NNW 17:12:23 14° N 17:15:16 10° NE daylight
21 Apr - 18:56:08 10° NNW 19:00:55 25° NNE 19:05:39 10° E daylight
21 Apr - 20:42:11 10° NW 20:48:03 86° NE 20:53:56 10° SE visible
21 Apr - 22:29:43 10° WNW 22:33:38 19° WSW 22:37:34 10° SSW visible
22 Apr - 11:52:46 10° SSW 11:58:32 51° ESE 12:04:13 10° NE daylight
22 Apr - 13:39:31 10° WSW 13:45:03 39° NW 13:50:32 10° NNE daylight
22 Apr - 15:29:32 10° NW 15:33:05 16° NNW 15:36:38 10° NNE daylight
22 Apr - 17:18:49 10° NNW 17:21:59 15° N 17:25:09 10° NE daylight
22 Apr - 19:05:08 10° NNW 19:10:17 31° NE 19:15:25 10° E daylight
22 Apr - 20:51:17 10° NW 20:57:05 69° WSW 21:02:55 10° SSE visible
22 Apr - 22:40:03 10° WNW 22:42:21 12° WSW 22:44:39 10° SW visible
